• In Belgium
  • List of Countries
  • For 7 days
  • Water Temperature
  • Satellite Maps
  • Weather Map
  • Weather Widgets
  • user-avatar
    Login

    Hourly Weather Stretford

    Today, 23 November, Thursday

    Time Temperature Precipitation Wind Pressure Humidity
    00:00 +12°C° 1 mm 8 mps 732 mmHg 85%
    01:00 +11°C° 0.5 mm 7 mps 732 mmHg 85%
    02:00 +10°C° 0.5 mm 7 mps 733 mmHg 85%
    03:00 +9°C° 0.5 mm 6 mps 734 mmHg 84%
    04:00 +8°C° 0.1 mm 7 mps 735 mmHg 80%
    05:00 +6°C° 0.1 mm 7 mps 736 mmHg 76%
    06:00 +5°C° 0.1 mm 7 mps 737 mmHg 72%
    07:00 +5°C° 0 mm 8 mps 737 mmHg 71%
    08:00 +5°C° 0 mm 8 mps 738 mmHg 70%
    09:00 +5°C° 0 mm 8 mps 739 mmHg 69%
    10:00 +5°C° 0.1 mm 9 mps 739 mmHg 68%
    11:00 +6°C° 0.1 mm 10 mps 739 mmHg 68%
    12:00 +7°C° 0.1 mm 11 mps 740 mmHg 67%
    13:00 +7°C° 0.1 mm 10 mps 741 mmHg 67%
    14:00 +6°C° 0.1 mm 9 mps 742 mmHg 67%
    15:00 +6°C° 0.1 mm 9 mps 743 mmHg 67%
    16:00 +6°C° 0.1 mm 8 mps 745 mmHg 68%
    17:00 +5°C° 0.1 mm 7 mps 746 mmHg 69%
    18:00 +4°C° 0.1 mm 6 mps 748 mmHg 70%
    19:00 +4°C° 0.1 mm 6 mps 748 mmHg 70%
    20:00 +5°C° 0.1 mm 5 mps 749 mmHg 71%
    21:00 +5°C° 0.1 mm 4 mps 750 mmHg 71%
    22:00 +5°C° 0 mm 3 mps 750 mmHg 72%
    23:00 +4°C° 0 mm 3 mps 750 mmHg 72%

    Tomorrow, 24 November, Friday

    Time Temperature Precipitation Wind Pressure Humidity
    00:00 +4°C° 0 mm 3 mps 751 mmHg 73%
    01:00 +5°C° 0 mm 2 mps 751 mmHg 73%
    02:00 +5°C° 0 mm 2 mps 751 mmHg 73%
    03:00 +5°C° 0 mm 2 mps 751 mmHg 72%
    04:00 +5°C° 0 mm 2 mps 752 mmHg 72%
    05:00 +4°C° 0 mm 2 mps 752 mmHg 72%
    06:00 +3°C° 0 mm 3 mps 752 mmHg 72%
    07:00 +3°C° 0 mm 3 mps 753 mmHg 72%
    08:00 +3°C° 0 mm 3 mps 754 mmHg 72%
    09:00 +3°C° 0 mm 3 mps 754 mmHg 72%
    10:00 +4°C° 0.1 mm 3 mps 754 mmHg 69%
    11:00 +5°C° 0.1 mm 4 mps 755 mmHg 65%
    12:00 +5°C° 0.1 mm 5 mps 755 mmHg 62%
    13:00 +5°C° 0.2 mm 5 mps 755 mmHg 64%
    14:00 +5°C° 0.2 mm 5 mps 755 mmHg 66%
    15:00 +3°C° 0.2 mm 5 mps 756 mmHg 68%
    16:00 +4°C° 0.1 mm 4 mps 756 mmHg 69%
    17:00 +3°C° 0.1 mm 4 mps 756 mmHg 70%
    18:00 +3°C° 0.1 mm 4 mps 756 mmHg 72%
    19:00 +1°C° 0.1 mm 4 mps 757 mmHg 72%
    20:00 +1°C° 0.1 mm 4 mps 757 mmHg 71%
    21:00 +1°C° 0.1 mm 4 mps 757 mmHg 71%
    22:00 +1°C° 0.1 mm 4 mps 757 mmHg 71%
    23:00 +1°C° 0.1 mm 4 mps 757 mmHg 72%

    Day after tomorrow, 25 November, Saturday

    Time Temperature Precipitation Wind Pressure Humidity
    00:00 0°C° 0.1 mm 4 mps 757 mmHg 72%
    01:00 0°C° 0.1 mm 5 mps 757 mmHg 72%
    02:00 0°C° 0.1 mm 5 mps 757 mmHg 72%
    03:00 0°C° 0.1 mm 5 mps 757 mmHg 72%
    04:00 +1°C° 0.3 mm 5 mps 757 mmHg 72%
    05:00 +1°C° 0.3 mm 6 mps 757 mmHg 73%
    06:00 +1°C° 0.3 mm 6 mps 757 mmHg 74%
    07:00 +1°C° 0.3 mm 6 mps 757 mmHg 73%
    08:00 +1°C° 0.3 mm 6 mps 758 mmHg 72%
    09:00 +1°C° 0.3 mm 6 mps 758 mmHg 72%
    10:00 +2°C° 0.2 mm 6 mps 758 mmHg 69%
    11:00 +2°C° 0.2 mm 7 mps 758 mmHg 67%
    12:00 +3°C° 0.2 mm 7 mps 759 mmHg 64%
    13:00 +3°C° 0.3 mm 7 mps 759 mmHg 66%
    14:00 +2°C° 0.3 mm 7 mps 759 mmHg 67%
    15:00 +2°C° 0.3 mm 6 mps 759 mmHg 69%
    16:00 +2°C° 0.2 mm 6 mps 759 mmHg 70%
    17:00 +2°C° 0.2 mm 6 mps 759 mmHg 71%
    18:00 +1°C° 0.2 mm 6 mps 760 mmHg 72%
    19:00 +1°C° 0.1 mm 6 mps 760 mmHg 73%
    20:00 +1°C° 0.1 mm 6 mps 760 mmHg 73%
    21:00 +1°C° 0.1 mm 6 mps 760 mmHg 74%
    22:00 +2°C° 0.1 mm 7 mps 760 mmHg 75%
    23:00 +2°C° 0.1 mm 7 mps 761 mmHg 76%

    26 November, Sunday

    Time Temperature Precipitation Wind Pressure Humidity
    00:00 +2°C° 0.1 mm 7 mps 761 mmHg 77%
    01:00 +2°C° 0.2 mm 7 mps 761 mmHg 78%
    02:00 +2°C° 0.2 mm 6 mps 761 mmHg 79%
    03:00 +2°C° 0.2 mm 6 mps 761 mmHg 80%
    04:00 +2°C° 0.2 mm 6 mps 762 mmHg 80%
    05:00 +2°C° 0.2 mm 6 mps 762 mmHg 79%
    06:00 +2°C° 0.2 mm 6 mps 762 mmHg 79%
    07:00 +2°C° 0.2 mm 6 mps 762 mmHg 79%
    08:00 +2°C° 0.2 mm 5 mps 763 mmHg 79%
    09:00 +3°C° 0.2 mm 5 mps 763 mmHg 78%
    10:00 +3°C° 0.2 mm 6 mps 763 mmHg 76%
    11:00 +4°C° 0.2 mm 6 mps 764 mmHg 74%
    12:00 +5°C° 0.2 mm 6 mps 764 mmHg 72%
    13:00 +4°C° 0.1 mm 6 mps 764 mmHg 73%
    14:00 +4°C° 0.1 mm 6 mps 764 mmHg 74%
    15:00 +5°C° 0.1 mm 5 mps 764 mmHg 75%
    16:00 +5°C° 0.1 mm 5 mps 764 mmHg 76%
    17:00 +3°C° 0.1 mm 5 mps 764 mmHg 77%
    18:00 +3°C° 0.1 mm 5 mps 764 mmHg 77%
    19:00 +4°C° 0 mm 4 mps 764 mmHg 79%
    20:00 +4°C° 0 mm 4 mps 764 mmHg 80%
    21:00 +4°C° 0 mm 4 mps 764 mmHg 81%
    22:00 +4°C° 0.1 mm 4 mps 763 mmHg 83%
    23:00 +3°C° 0.1 mm 5 mps 763 mmHg 84%

    27 November, Monday

    Time Temperature Precipitation Wind Pressure Humidity
    00:00 +3°C° 0.1 mm 5 mps 762 mmHg 86%
    01:00 +4°C° 0.9 mm 6 mps 761 mmHg 86%
    02:00 +4°C° 0.9 mm 7 mps 760 mmHg 86%
    03:00 +4°C° 0.9 mm 7 mps 759 mmHg 86%
    04:00 +5°C° 0.7 mm 7 mps 759 mmHg 84%
    05:00 +5°C° 0.7 mm 7 mps 758 mmHg 83%
    06:00 +6°C° 0.7 mm 7 mps 757 mmHg 81%
    07:00 +5°C° 0.1 mm 7 mps 758 mmHg 79%
    08:00 +5°C° 0.1 mm 7 mps 758 mmHg 77%
    09:00 +4°C° 0.1 mm 7 mps 758 mmHg 75%
    10:00 +5°C° 0.1 mm 7 mps 758 mmHg 72%
    11:00 +5°C° 0.1 mm 8 mps 758 mmHg 69%
    12:00 +6°C° 0.1 mm 8 mps 758 mmHg 66%
    13:00 +5°C° 0.1 mm 8 mps 757 mmHg 67%
    14:00 +5°C° 0.1 mm 8 mps 757 mmHg 69%
    15:00 +5°C° 0.1 mm 7 mps 756 mmHg 70%
    16:00 +4°C° 0.1 mm 7 mps 756 mmHg 72%
    17:00 +4°C° 0.1 mm 6 mps 756 mmHg 75%
    18:00 +5°C° 0.1 mm 5 mps 756 mmHg 77%
    19:00 +5°C° 0.3 mm 5 mps 756 mmHg 79%
    20:00 +5°C° 0.3 mm 4 mps 755 mmHg 82%
    21:00 +5°C° 0.3 mm 3 mps 755 mmHg 84%
    22:00 +4°C° 0.7 mm 3 mps 754 mmHg 86%
    23:00 +4°C° 0.7 mm 3 mps 753 mmHg 89%

    28 November, Tuesday

    Time Temperature Precipitation Wind Pressure Humidity
    00:00 +4°C° 0.7 mm 3 mps 752 mmHg 91%
    01:00 +4°C° 1.6 mm 4 mps 751 mmHg 90%
    02:00 +4°C° 1.6 mm 4 mps 751 mmHg 88%
    03:00 +4°C° 1.6 mm 4 mps 750 mmHg 87%
    04:00 +4°C° 0.9 mm 4 mps 750 mmHg 87%
    05:00 +4°C° 0.9 mm 4 mps 750 mmHg 88%
    06:00 +4°C° 0.9 mm 4 mps 750 mmHg 88%
    07:00 +4°C° 0 mm 4 mps 750 mmHg 87%
    08:00 +3°C° 0 mm 4 mps 751 mmHg 87%
    09:00 +3°C° 0 mm 4 mps 751 mmHg 86%
    10:00 +4°C° 0 mm 4 mps 752 mmHg 82%
    11:00 +4°C° 0 mm 3 mps 752 mmHg 79%
    12:00 +5°C° 0 mm 3 mps 752 mmHg 75%
    13:00 +5°C° 0 mm 3 mps 752 mmHg 76%
    14:00 +4°C° 0 mm 3 mps 753 mmHg 77%
    15:00 +4°C° 0 mm 3 mps 753 mmHg 78%
    16:00 +3°C° 0 mm 3 mps 753 mmHg 80%
    17:00 +3°C° 0 mm 3 mps 753 mmHg 82%
    18:00 +2°C° 0 mm 3 mps 754 mmHg 84%
    19:00 +2°C° 0.1 mm 3 mps 754 mmHg 84%
    20:00 +2°C° 0.1 mm 3 mps 754 mmHg 84%
    21:00 +2°C° 0.1 mm 3 mps 754 mmHg 84%
    22:00 +2°C° 0.1 mm 3 mps 754 mmHg 84%
    23:00 +2°C° 0.1 mm 3 mps 753 mmHg 84%
    Show more